Simultaneous Nadir Overpasses (SNOs) Predictions

Prediction of SNOs between METOP-B and NOAA-19 Satellite Orbit:

Table of predicted SNOs for the next 14.0 days since TLE Epoch: 12/21/2024
Index Date (METOP-B) Time (METOP-B) Lat,Lon (METOP-B) SZA (METOP-B ) Date (NOAA-19) Time (NOAA-19) Lat,Lon (NOAA-19) SZA (NOAA-19 ) Distance(km) Time Diff (sec)
1 12/27/2024 20:41:12 -80.11, 128.66 69.04 12/27/2024 20:40:09 -80.11, 128.60 69.09 1.19 63
2 12/27/2024 21:31:52 80.07, -63.58 111.03 12/27/2024 21:31:08 80.07, -63.64 110.99 1.32 44
3 12/27/2024 22:22:32 -80.05, 103.92 68.96 12/27/2024 22:22:03 -80.04, 104.06 68.96 2.98 29
4 12/27/2024 23:13:12 80.01, -88.32 111.11 12/27/2024 23:13:02 80.00, -88.18 111.12 2.87 10
5 12/28/2024 00:03:52 -79.99, 79.18 68.88 12/28/2024 00:03:58 -79.99, 79.20 68.87 0.61 6
6 12/28/2024 00:54:32 79.95,-113.07 111.18 12/28/2024 00:54:57 79.94,-113.05 111.21 0.44 25
7 12/28/2024 01:45:12 -79.93, 54.42 68.80 12/28/2024 01:45:53 -79.93, 54.34 68.78 1.81 41
8 12/28/2024 02:35:52 79.88,-137.82 111.26 12/28/2024 02:36:52 79.89,-137.92 111.29 2.00 60



Historial Predications of SNOs between METOP-B and NOAA-19
